Location: Cantaing
(50.1487°N, 3.1675°E)
Time: 06:53:29
(UTC+00:00)

Cosmos 2074 Rocket - Pass Details

Date: 14 January 2026
Orbit: 966 x 986 km, 82.9° (Epoch: 10 February)

Event Time Altitude Azimuth Distance (km) Brightness Sun altitude
Rises 05:17:34 0° 180° (S) 3,681 7.1 -22.3°
Reaches altitude 10° 05:20:04 10° 178° (S) 2,738 6.4 -21.9°
Maximum altitude 05:26:20 73° 96° (E) 1,032 4.2 -20.9°
Drops below altitude 10° 05:32:37 10° 13° (NNE) 2,752 6.4 -19.9°
Sets 05:35:09 0° 11° (NNE) 3,702 7.1 -19.5°
